Weather History for Elizabeth City, NC

Change the Weather History Date:

Monday, May 6, 2013

  Actual Average Record
Temperature  
Mean Temperature 66 °F 64 °F  
Max Temperature 74 °F 74 °F 92 °F (1950)
Min Temperature 58 °F 53 °F 42 °F (1954)
Degree Days  
Heating Degree Days 0 4  
Month to date heating degree days 31 24  
Since 1 July heating degree days 2841 3185  
Cooling Degree Days 1 2  
Month to date cooling degree days 1 12  
Year to date cooling degree days 55 54  
Growing Degree Days 15 (Base 50)    
Moisture  
Dew Point 60 °F    
Average Humidity 82    
Maximum Humidity 100    
Minimum Humidity 64    
Precipitation  
Precipitation 0.05 in 0.11 in 3.17 in (2005)
Month to date precipitation 0.05 0.62  
Year to date precipitation 9.53 14.18  
Snow  
Snow 0.00 in - 0.00 in (2002)
Month to date snowfall 0.0  
Since 1 July snowfall T  
Snow Depth 0.00 in    
Sea Level Pressure  
Sea Level Pressure 30.01 in    
Wind  
Wind Speed 12 mph (East)    
Max Wind Speed 21 mph    
Max Gust Speed 26 mph    
Visibility 9 miles    
Events Rain    
T = Trace of Precipitation, MM = Missing Value Source: NWS Daily Summary

Daily Weather History Graph

Daily Weather History Graph

Search for Another Location

Airport:

Trip Planner

Search our weather history database for the weather conditions in past years. The results will help you decide how hot, cold, wet, or windy it might be!

Date:

Astronomy

May. 06, 2013 Rise Set
Actual Time 6:06 AM EDT 7:56 PM EDT
Civil Twilight 5:38 AM EDT 8:24 PM EDT
Nautical Twilight 5:04 AM EDT 8:58 PM EDT
Astronomical Twilight 4:28 AM EDT 9:35 PM EDT
Moon 4:01 AM EDT (5/6) 4:59 PM EDT (5/6)
Length of Visible Light 14h 46m
Length of Day
13h 50m
Waning Crescent, 11% of the Moon is Illuminated
May 6
Waning Crescent
May 9
New
May 18
First Quarter
May 25
Full
May 31
Last Quarter

Hourly Weather History & Observations

Time (EDT) Temp. Dew Point Humidity Pressure Visibility Wind Dir Wind Speed Gust Speed Precip Events Conditions
12:54 AM 57.9 °F 55.9 °F 93% 30.06 in 7.0 mi NE 13.8 mph - N/A   Overcast
1:54 AM 59.0 °F 57.0 °F 93% 30.05 in 7.0 mi ENE 12.7 mph - N/A   Overcast
2:54 AM 59.0 °F 57.9 °F 96% 30.04 in 7.0 mi ENE 15.0 mph - N/A   Overcast
3:05 AM 59.0 °F 57.2 °F 94% 30.04 in 6.0 mi ENE 12.7 mph - N/A   Overcast
3:54 AM 59.0 °F 57.9 °F 96% 30.03 in 7.0 mi East 11.5 mph - N/A   Overcast
4:54 AM 59.0 °F 59.0 °F 100% 30.02 in 8.0 mi ENE 11.5 mph - N/A   Overcast
5:26 AM 59.0 °F 59.0 °F 100% 30.03 in 1.8 mi East 10.4 mph - N/A   Overcast
5:54 AM 59.0 °F 59.0 °F 100% 30.04 in 2.0 mi East 8.1 mph - N/A   Overcast
6:07 AM 59.0 °F 59.0 °F 100% 30.03 in 4.0 mi ENE 8.1 mph - N/A   Overcast
6:54 AM 59.0 °F 59.0 °F 100% 30.03 in 9.0 mi ENE 11.5 mph - N/A   Overcast
7:36 AM 60.8 °F 59.0 °F 94% 30.04 in 10.0 mi ENE 8.1 mph - N/A   Overcast
7:54 AM 61.0 °F 59.0 °F 93% 30.04 in 10.0 mi ENE 10.4 mph - N/A   Mostly Cloudy
8:10 AM 62.6 °F 59.0 °F 88% 30.04 in 10.0 mi ENE 10.4 mph - N/A   Partly Cloudy
8:54 AM 68.0 °F 60.1 °F 76% 30.04 in 10.0 mi East 8.1 mph - N/A   Scattered Clouds
9:54 AM 70.0 °F 60.1 °F 71% 30.04 in 10.0 mi East 9.2 mph 18.4 mph N/A   Clear
10:54 AM 71.1 °F 59.0 °F 66% 30.04 in 10.0 mi East 15.0 mph - N/A   Clear
11:54 AM 72.0 °F 59.0 °F 64% 30.03 in 10.0 mi East 16.1 mph - N/A   Clear
12:54 PM 73.9 °F 60.1 °F 62% 30.01 in 10.0 mi East 18.4 mph 23.0 mph N/A   Clear
1:54 PM 72.0 °F 60.1 °F 66% 30.01 in 10.0 mi East 15.0 mph 24.2 mph N/A   Scattered Clouds
2:54 PM 69.1 °F 60.1 °F 73% 30.00 in 10.0 mi ESE 18.4 mph - N/A   Overcast
3:54 PM 66.9 °F 63.0 °F 87% 29.97 in 7.0 mi ESE 15.0 mph - 0.02 in Rain Light Rain
4:54 PM 68.0 °F 61.0 °F 78% 29.97 in 10.0 mi ESE 17.3 mph 24.2 mph 0.00 in   Overcast
5:54 PM 64.9 °F 60.1 °F 84% 29.97 in 10.0 mi ESE 15.0 mph 21.9 mph 0.00 in   Overcast
6:54 PM 64.9 °F 59.0 °F 81% 29.95 in 10.0 mi East 11.5 mph 18.4 mph 0.00 in Rain Light Rain
7:54 PM 64.0 °F 60.1 °F 87% 29.95 in 10.0 mi East 8.1 mph - 0.01 in   Scattered Clouds
8:54 PM 63.0 °F 60.1 °F 90% 29.96 in 10.0 mi East 8.1 mph - 0.00 in   Scattered Clouds
9:16 PM 62.6 °F 60.8 °F 94% 29.97 in 10.0 mi East 4.6 mph - N/A   Mostly Cloudy
9:31 PM 64.4 °F 60.8 °F 88% 29.98 in 10.0 mi East 5.8 mph - N/A   Overcast
9:45 PM 64.4 °F 60.8 °F 88% 29.98 in 10.0 mi East 8.1 mph - N/A   Overcast
9:54 PM 64.0 °F 61.0 °F 90% 29.98 in 10.0 mi ESE 12.7 mph - N/A   Overcast
10:23 PM 64.4 °F 60.8 °F 88% 29.98 in 10.0 mi East 8.1 mph - 0.00 in Rain Light Rain
10:39 PM 64.4 °F 60.8 °F 88% 29.98 in 10.0 mi ESE 13.8 mph 18.4 mph 0.00 in   Overcast
10:54 PM 64.0 °F 61.0 °F 90% 29.97 in 10.0 mi ESE 9.2 mph - 0.00 in   Overcast
11:16 PM 64.4 °F 60.8 °F 88% 29.97 in 10.0 mi ESE 10.4 mph - N/A   Overcast
11:54 PM 63.0 °F 61.0 °F 93% 29.96 in 10.0 mi ESE 8.1 mph - N/A   Mostly Cloudy